[[{"header":{"parameterUnit":"m.s-1","parameterCategory":1,"la1":30.2991,"la2":30.254,"lo1":-89.0895,"lo2":-89.0444,"dy":0.0017,"dx":0.0017,"nx":28,"ny":28,"refTime":"2024-02-20T09:00:00:Z","depth":0,"parameterNumber":2,"parameterNumberName":"U-component_of_WINDS"},"data":[0,0,0,0,0,0,0,0,0,0,0,0,0,0,0,0,0,0,0,0,0,0,0,0,0,0,0,0,0,0,0,0,0,0,0,0,0,0,0,0,0,0,0,0,0,0,0,0,0,0,0,0,0,0,0,0,0,0,2.4362,2.4363,0,2.4465,2.4466,2.4467,2.4537,2.4537,2.4538,2.4538,2.4645,2.4647,2.4649,0,0,0,0,0,0,0,0,0,0,0,0,0,2.4227,2.4229,2.4362,2.4363,2.4364,2.4465,2.4466,2.4468,2.4537,2.4537,2.4538,2.4539,2.4644,2.4647,2.465,0,0,0,0,0,0,0,0,0,0,0,0,0,2.4303,2.4229,2.4361,2.4411,2.4416,2.4465,2.4466,2.4468,2.4537,2.4537,2.4538,2.4539,2.4643,2.4646,2.465,2.4657,0,0,2.4661,2.4662,0,0,0,0,0,0,0,0,2.4299,2.4308,2.4402,2.4408,2.4414,2.4489,2.4458,2.4532,2.4537,2.4491,2.4538,2.4539,2.4592,2.46,2.4618,2.4662,2.4667,2.4661,2.4663,2.4665,2.4666,0,0,0,0,0,0,0,2.4293,2.4304,2.4403,2.4404,2.4411,2.4429,2.444,2.4472,2.4536,2.4495,2.45,2.4512,2.4596,2.4614,2.4621,2.4669,2.4661,2.4664,2.4666,2.4668,2.4727,2.4726,0,0,0,0,0,0,2.428,2.4299,2.4399,2.4406,2.4357,2.443,2.4444,2.4464,2.4536,2.4548,2.4511,2.4514,2.4608,2.4617,2.4625,2.464,2.4665,2.4668,2.467,2.4727,2.4727,2.4726,0,0,0,0,0,0,2.4277,2.4288,2.4395,2.4354,2.4369,2.4432,2.4454,2.4466,2.4484,2.4548,2.456,2.4518,2.4609,2.462,2.4649,2.4644,2.467,2.4673,2.4728,2.4727,2.4726,2.4668,0,0,0,0,0,0,2.4273,2.4287,2.4289,2.4353,2.4371,2.4417,2.4454,2.4467,2.449,2.4496,2.4558,2.4569,2.461,2.4644,2.4653,2.465,2.4676,2.4729,2.4728,2.4727,2.4671,2.4665,2.466,0,0,0,0,0,2.4267,2.4268,2.4289,2.4301,2.4375,2.4416,2.4426,2.4474,2.449,2.4493,2.4535,2.4567,2.4643,2.4646,2.4657,2.4655,2.4729,2.4728,2.4727,2.4673,2.4666,2.4661,0,0,0,0,0,0,2.4202,2.4278,2.4301,2.4323,2.4363,2.4428,2.4434,2.4465,2.4501,2.4505,2.4562,2.4576,2.4599,2.463,2.4632,2.4667,2.469,2.4691,2.4646,2.464,2.4635,2.4627,2.4679,0,0,0,0,0,2.419,2.4216,2.4282,2.4294,2.4313,2.437,2.439,2.4423,2.4466,2.4484,2.4527,2.4568,2.4602,2.4623,2.4657,2.4676,2.4691,2.468,2.4675,2.467,2.467,2.4684,2.468,2.4722,2.4722,2.4722,0,0,2.4165,2.421,2.4223,2.4282,2.4317,2.4344,2.4384,2.441,2.4431,2.4488,2.4518,2.4552,2.4602,2.4626,2.4639,2.4653,2.4662,2.4669,2.4665,2.4667,2.4682,2.4678,2.4675,2.4721,2.4721,2.4721,0,0,2.4135,2.4171,2.4186,2.4221,2.4273,2.4311,2.4315,2.4376,2.44,2.4432,2.4476,2.4502,2.4558,2.4593,2.4617,2.4602,2.4633,2.4612,2.4585,2.4598,2.4594,2.4592,2.4587,2.4585,2.4611,2.4611,2.4611,0,2.4098,2.4139,2.419,2.4215,2.424,2.4293,2.431,2.4341,2.4401,2.4418,2.4432,2.4505,2.4543,2.4577,2.4573,2.4591,2.4598,2.4604,2.4591,2.4589,2.4587,2.4583,2.4581,2.4608,2.4609,2.4609,2.4609,0,2.4092,2.412,2.4126,2.4184,2.421,2.423,2.4285,2.4306,2.4338,2.4374,2.4407,2.4454,2.45,2.451,2.4541,2.4549,2.4556,2.458,2.4604,2.4579,2.4576,2.4575,2.4604,2.4605,2.4606,2.4607,0,0,2.4021,2.4108,2.4109,2.4137,2.4199,2.4223,2.4246,2.4291,2.4308,2.4349,2.437,2.4418,2.4441,2.4469,2.4504,2.4515,2.4502,2.4538,2.4541,2.453,2.4515,2.4496,2.4494,2.4523,2.4523,2.4523,2.4511,0,2.4,2.4044,2.4091,2.4119,2.4147,2.4199,2.422,2.4261,2.4297,2.4327,2.4367,2.4399,2.4427,2.4444,2.4458,2.45,2.4499,2.4502,2.4545,2.4545,2.453,2.4492,2.4472,2.4458,2.451,2.451,2.451,0,2.398,2.4019,2.405,2.4111,2.4125,2.4142,2.4188,2.4215,2.4264,2.4289,2.4322,2.436,2.4388,2.441,2.4451,2.4452,2.4473,2.4496,2.4497,2.4503,2.4525,2.4497,2.4455,2.4453,2.4508,2.4508,2.4509,0,2.3926,2.3986,2.4013,2.4034,2.4107,2.4118,2.4149,2.4198,2.4223,2.4263,2.428,2.4323,2.4346,2.4379,2.4429,2.444,2.4465,2.449,2.4487,2.4486,2.4489,2.4488,2.445,2.4502,2.4502,2.4503,2.4503,0,2.3897,2.3914,2.3989,2.4005,2.4027,2.4082,2.4102,2.4137,2.4181,2.4206,2.4254,2.4276,2.434,2.4371,2.4409,2.4438,2.4448,2.447,2.448,2.4466,2.4463,2.448,2.4482,2.4502,2.4502,2.4502,2.4502,0,2.384,2.3891,2.3923,2.399,2.4007,2.402,2.4077,2.4095,2.4135,2.4166,2.4176,2.4238,2.4276,2.4329,2.4384,2.441,2.4434,2.4449,2.4417,2.4423,2.4417,2.4417,2.4388,2.4387,2.4439,2.4439,2.4438,0,2.3818,2.3832,2.3901,2.3921,2.395,2.3982,2.4007,2.4063,2.4088,2.4145,2.4157,2.4199,2.4236,2.4295,2.4345,2.4388,2.4405,2.4392,2.4412,2.4397,2.4406,2.4404,2.4406,2.4387,2.4386,2.4386,2.4385,0,2.3774,2.3799,2.3833,2.3877,2.3907,2.3944,2.3983,2.3997,2.4062,2.4087,2.4127,2.4156,2.4212,2.4254,2.4304,2.4337,2.4372,2.4379,2.438,2.4365,2.4346,2.4357,2.4404,2.4379,2.438,2.438,2.438,2.4381,2.3734,2.375,2.3801,2.3838,2.3874,2.391,2.3931,2.3974,2.4008,2.4058,2.4089,2.4128,2.4179,2.4249,2.428,2.4312,2.4326,2.4328,2.4329,2.4328,2.4324,2.4341,2.4321,2.4322,2.4322,2.4322,2.4322,0,2.3693,2.3729,2.3763,2.3817,2.3847,2.3878,2.3924,2.3947,2.398,2.4024,2.406,2.4106,2.4148,2.4202,2.4247,2.4262,2.428,2.4272,2.4272,2.4279,2.4308,2.4303,2.4258,2.4258,2.4258,2.4258,2.4258,2.4258,2.3675,2.3703,2.3735,2.3782,2.3818,2.3857,2.388,2.3915,2.395,2.4,2.4035,2.407,2.4118,2.4168,2.4207,2.4223,2.4237,2.4225,2.4244,2.4271,2.4277,2.4282,2.4277,2.4227,2.4227,2.4213,2.4212,2.4212]},{"header":{"parameterUnit":"m.s-1","parameterCategory":1,"la1":30.2991,"la2":30.254,"lo1":-89.0895,"lo2":-89.0444,"dy":0.0017,"dx":0.0017,"nx":28,"ny":28,"refTime":"2024-02-20T09:00:00:Z","depth":0,"parameterNumber":3,"parameterNumberName":"V-component_of_WINDS"},"data":[0,0,0,0,0,0,0,0,0,0,0,0,0,0,0,0,0,0,0,0,0,0,0,0,0,0,0,0,0,0,0,0,0,0,0,0,0,0,0,0,0,0,0,0,0,0,0,0,0,0,0,0,0,0,0,0,0,0,0.8683,0.8683,0,0.8651,0.8651,0.8651,0.8622,0.8621,0.8621,0.8621,0.859,0.8589,0.8589,0,0,0,0,0,0,0,0,0,0,0,0,0,0.8718,0.8718,0.8683,0.8683,0.8682,0.8652,0.8651,0.8651,0.8622,0.8621,0.8621,0.8621,0.859,0.859,0.8589,0,0,0,0,0,0,0,0,0,0,0,0,0,0.8696,0.8717,0.8683,0.8664,0.8662,0.8652,0.8651,0.8651,0.8622,0.8621,0.8621,0.862,0.859,0.859,0.8589,0.8595,0,0,0.8587,0.8586,0,0,0,0,0,0,0,0,0.8698,0.8695,0.8667,0.8665,0.8663,0.864,0.8652,0.8632,0.8622,0.8637,0.8621,0.862,0.8607,0.8605,0.86,0.8594,0.8592,0.8587,0.8586,0.8586,0.8586,0,0,0,0,0,0,0,0.8699,0.8696,0.8671,0.8667,0.8664,0.8657,0.8653,0.8648,0.8626,0.8636,0.8634,0.863,0.8606,0.8601,0.8599,0.8592,0.8587,0.8586,0.8585,0.8585,0.8586,0.8587,0,0,0,0,0,0,0.8704,0.8698,0.8672,0.867,0.8679,0.8657,0.8653,0.8648,0.8626,0.8622,0.8631,0.8629,0.8603,0.86,0.8598,0.8602,0.8586,0.8585,0.8585,0.8586,0.8586,0.8587,0,0,0,0,0,0,0.8704,0.8701,0.8673,0.8683,0.8679,0.8657,0.8652,0.8648,0.8643,0.8622,0.8618,0.863,0.8602,0.8599,0.8595,0.8601,0.8585,0.8584,0.8585,0.8586,0.8587,0.8612,0,0,0,0,0,0,0.8706,0.8702,0.8704,0.8683,0.8678,0.8671,0.8652,0.8647,0.8641,0.8639,0.862,0.8616,0.8601,0.8597,0.8595,0.86,0.8584,0.8585,0.8586,0.8586,0.861,0.8613,0.8616,0,0,0,0,0,0.8707,0.8714,0.8705,0.8702,0.8681,0.8671,0.8668,0.8651,0.8642,0.8644,0.863,0.8617,0.8601,0.8597,0.8594,0.8599,0.8584,0.8585,0.8586,0.8609,0.8613,0.8616,0,0,0,0,0,0,0.8737,0.871,0.87,0.87,0.8688,0.8666,0.8668,0.8655,0.8646,0.8644,0.8623,0.8619,0.8617,0.8608,0.8604,0.8602,0.8591,0.8591,0.8609,0.8612,0.8615,0.8617,0.8583,0,0,0,0,0,0.8743,0.8737,0.8715,0.8717,0.8711,0.8691,0.8686,0.8673,0.866,0.8655,0.8641,0.8629,0.862,0.8616,0.8607,0.8609,0.8604,0.8611,0.8613,0.8616,0.8616,0.8615,0.8617,0.859,0.859,0.859,0,0,0.8757,0.8742,0.874,0.8723,0.8712,0.8706,0.8687,0.8682,0.8677,0.8654,0.8649,0.8638,0.8623,0.8622,0.862,0.8614,0.8622,0.8617,0.8619,0.8618,0.8616,0.8618,0.8621,0.8591,0.8591,0.8591,0,0,0.8778,0.8767,0.8766,0.8755,0.8738,0.8724,0.8724,0.8704,0.8695,0.869,0.8672,0.8666,0.8653,0.8642,0.8635,0.865,0.8637,0.8648,0.8662,0.866,0.8663,0.8664,0.8668,0.867,0.8649,0.8649,0.8649,0,0.8798,0.8788,0.8768,0.8763,0.8756,0.8733,0.8732,0.8723,0.8704,0.87,0.8692,0.8674,0.8662,0.8657,0.866,0.8656,0.8654,0.865,0.8664,0.8665,0.8667,0.867,0.8672,0.865,0.865,0.865,0.865,0,0.8811,0.8805,0.8806,0.8787,0.878,0.8778,0.8757,0.8752,0.8739,0.8726,0.872,0.8705,0.8692,0.869,0.8678,0.8682,0.8678,0.8668,0.8655,0.8671,0.8674,0.8675,0.8652,0.8652,0.8651,0.8651,0,0,0.8852,0.882,0.8821,0.8812,0.879,0.8785,0.8781,0.8767,0.8762,0.875,0.8745,0.8734,0.8723,0.8715,0.8702,0.8701,0.8711,0.869,0.8689,0.8693,0.8713,0.872,0.8722,0.8702,0.8703,0.8703,0.8713,0,0.8869,0.8859,0.884,0.8837,0.8829,0.8807,0.8803,0.879,0.8777,0.8768,0.8754,0.8746,0.8733,0.8728,0.8725,0.871,0.8715,0.8709,0.8697,0.8697,0.8701,0.8724,0.8732,0.8743,0.8715,0.8715,0.8715,0,0.8888,0.8875,0.887,0.8848,0.8844,0.8841,0.8826,0.8818,0.8802,0.8792,0.8782,0.8767,0.876,0.8749,0.8739,0.8736,0.8729,0.8721,0.8721,0.8719,0.8707,0.8721,0.8746,0.8748,0.8717,0.8717,0.8717,0,0.8916,0.8898,0.8892,0.8885,0.8859,0.8856,0.8846,0.8828,0.8821,0.8808,0.8802,0.8789,0.8782,0.8772,0.8753,0.8747,0.8744,0.8732,0.8736,0.8736,0.8736,0.8736,0.876,0.8733,0.8733,0.8733,0.8733,0,0.8937,0.8935,0.8904,0.8901,0.8897,0.8875,0.8872,0.8859,0.8843,0.8836,0.8817,0.8811,0.8787,0.8778,0.8763,0.8756,0.8754,0.8745,0.8741,0.8746,0.8747,0.8742,0.874,0.8734,0.8734,0.8734,0.8734,0,0.8968,0.8948,0.894,0.8915,0.8908,0.8907,0.8885,0.888,0.8865,0.8857,0.8854,0.883,0.8818,0.8799,0.8782,0.8771,0.8767,0.8761,0.8772,0.877,0.8774,0.8774,0.8794,0.8795,0.8769,0.877,0.877,0,0.8982,0.898,0.8954,0.8947,0.8936,0.8927,0.8918,0.8896,0.8888,0.8868,0.8865,0.8852,0.8839,0.8821,0.8803,0.8789,0.8782,0.879,0.878,0.8784,0.878,0.8781,0.878,0.8792,0.8793,0.8793,0.8793,0,0.9009,0.8999,0.8987,0.8971,0.8962,0.8949,0.8934,0.893,0.8905,0.8897,0.8884,0.8874,0.8855,0.8842,0.8825,0.8813,0.8799,0.8796,0.8796,0.8802,0.8808,0.8803,0.8778,0.8796,0.8796,0.8796,0.8795,0.8795,0.9031,0.9027,0.9008,0.8995,0.8982,0.8968,0.8962,0.8946,0.8934,0.8917,0.8904,0.8892,0.8873,0.8849,0.8838,0.8828,0.8821,0.8822,0.8821,0.8822,0.8823,0.881,0.8825,0.8825,0.8824,0.8824,0.8824,0,0.9056,0.9042,0.9031,0.901,0.9,0.8986,0.897,0.8962,0.8951,0.8935,0.8922,0.8907,0.8893,0.8872,0.8857,0.8852,0.8845,0.8849,0.8848,0.8846,0.883,0.8831,0.8855,0.8855,0.8855,0.8855,0.8855,0.8855,0.9068,0.906,0.9047,0.9031,0.9017,0.9004,0.8995,0.8982,0.8969,0.8952,0.894,0.8926,0.8908,0.8891,0.8877,0.8871,0.8866,0.8872,0.8864,0.885,0.8847,0.8844,0.8845,0.8871,0.8871,0.888,0.888,0.888]}]]